Location: Allen Fire Department Station 4
(33.1073°N, 96.6988°W)
Time: 11:12:25
(UTC+00:00)

BREEZE-M DEB (TANK) - Pass Details

Date: 03 December 2021
Orbit: 315 x 12018 km, 49.7° (Epoch: 24 January)

Event Time Altitude Azimuth Distance (km) Brightness Sun altitude
Exits shadow 12:22:30 - 310° (NW) 7,352 7.2 -10.7°
Reaches altitude 10° 12:24:46 10° 309° (NW) 6,553 7.0 -10.3°
Maximum altitude 12:39:16 69° 230° (SW) 1,196 3.7 -7.5°
Drops below altitude 10° 12:43:27 10° 147° (SSE) 2,027 6.0 -6.7°
Sets 12:44:51 0° 143° (SE) 2,636 6.7 -6.4°
